Location: Newark
(49.8348°N, 24.0280°E)
Time: 05:51:47
(UTC+00:00)

deb Explorer IX - Visible Passes

Search period start: 26 January 2020 00:00
Search period end: 05 February 2020 00:00
Orbit: 548 x 1101 km, 38.8° (Epoch: 25 January)

Date Brightness Start Highest point End Pass type
(mag) Time Alt. Az. Time Alt. Az. Time Alt. Az.
28 Jan ? 18:23:32 10° SSW 18:24:43 14° S 18:24:43 14° S visible
29 Jan ? 18:01:12 10° SSW 18:03:50 17° S 18:03:50 17° S visible
30 Jan ? 17:38:53 10° SSW 17:42:52 19° SSE 17:42:52 19° SSE visible
30 Jan ? 19:23:29 10° SW 19:24:14 13° SW 19:24:14 13° SW visible
31 Jan ? 17:16:35 10° SSW 17:20:43 18° SSE 17:21:52 18° SE visible
31 Jan ? 19:01:09 10° SW 19:03:12 19° SW 19:03:12 19° SW visible
01 Feb ? 16:54:18 10° SSW 16:58:16 18° SSE 17:00:48 15° SE visible
01 Feb ? 18:38:49 10° SW 18:42:10 25° SSW 18:42:10 25° SSW visible
02 Feb ? 16:32:03 10° SSW 16:35:50 18° SSE 16:39:42 11° ESE visible
02 Feb ? 18:16:31 10° SW 18:21:03 29° S 18:21:03 29° S visible
03 Feb ? 16:09:48 10° S 16:13:25 17° SSE 16:17:20 10° ESE visible
03 Feb ? 17:54:12 10° SW 17:59:24 30° S 17:59:56 29° SSE visible
03 Feb ? 19:40:16 10° WSW 19:41:16 14° WSW 19:41:16 14° WSW visible
04 Feb ? 17:31:56 10° SW 17:36:57 29° S 17:38:46 25° SE visible
04 Feb ? 19:17:57 10° WSW 19:20:07 20° SW 19:20:07 20° SW visible
